Temperature
6 6 6 6 6 6 5 5 4 4 4 5 5 5 4 4 4 4 4 4 4 3 3 3 4 4 4 3 3 3 3 3 3 3 3 3 2 2
6 6 6 6 5 5 5 5 4 4 3 4 4 4 4 4 4 3 3 3 3 3 3 3 3 3 3 3 3 3 3 2 2 2 2 2 2 2
5 5 5 5 5 5 5 4 4 4 3 4 4 4 3 3 3 3 3 3 3 3 3 3 3 2 2 2 2 2 2 2 2 2 2 1 1 1
5 5 5 5 5 4 4 4 4 3 3 3 4 3 3 3 3 3 2 2 2 2 2 2 2 2 2 2 2 2 2 1 1 1 1 1 1 1
5 5 4 4 4 4 4 4 3 3 3 2 3 2 2 2 2 2 2 2 2 2 2 2 1 1 1 1 1 1 1 1 1 1 1 0 0 0
4 4 4 4 4 4 3 3 3 2 2 2 2 2 2 2 1 2 2 2 2 1 1 1 1 1 1 1 1 1 1 0 0 0 0 -0 -0 -0
4 4 4 3 3 3 3 2 2 2 2 1 1 1 1 1 1 1 1 1 1 1 1 1 1 1 0 0 0 0 0 -0 -0 -0 -0 -1 -1 -1
3 3 3 3 3 2 2 2 2 1 1 1 1 1 1 0 -0 -0 -0 -1 -0 -0 -0 0 0 0 -0 -0 -0 -0 -1 -1 -1 -1 -1 -1 -1 -1
3 3 3 2 2 2 2 1 1 1 1 0 0 0 -0 -0 -1 -1 -1 -1 -1 -1 -1 -1 -0 -0 -1 -1 -1 -1 -1 -1 -1 -1 -2 -2 -2 -2
2 2 2 2 1 1 1 1 1 0 0 -0 -0 -0 -1 -1 -1 -2 -2 -2 -2 -2 -2 -2 -1 -1 -1 -1 -1 -2 -2 -2 -2 -2 -2 -2 -3 -3
2 2 1 1 1 1 0 0 0 0 -0 -1 -1 -1 -1 -2 -2 -2 -2 -3 -3 -2 -2 -3 -2 -2 -2 -2 -2 -2 -3 -3 -3 -3 -3 -3 -3 -3
1 1 1 0 0 0 -0 -0 -0 -0 -1 -1 -1 -1 -2 -2 -2 -3 -3 -3 -4 -4 -3 -4 -4 -4 -4 -3 -3 -3 -3 -3 -4 -4 -4 -4 -4 -4
1 1 0 -0 -0 -0 -1 -1 -1 -1 -1 -2 -2 -2 -2 -2 -3 -3 -3 -4 -4 -4 -4 -5 -5 -5 -5 -5 -4 -4 -4 -4 -4 -4 -4 -4 -4 -4
0 -0 -0 -1 -1 -1 -1 -1 -2 -2 -2 -2 -2 -3 -3 -3 -3 -3 -4 -4 -4 -4 -5 -5 -5 -6 -6 -6 -5 -5 -4 -5 -5 -5 -5 -5 -5 -5
-1 -1 -1 -1 -1 -2 -2 -2 -2 -2 -3 -3 -3 -3 -3 -4 -4 -4 -4 -4 -5 -5 -5 -5 -6 -6 -6 -6 -6 -6 -5 -5 -5 -5 -5 -5 -5 -5
-1 -1 -2 -2 -2 -2 -2 -2 -3 -3 -3 -3 -4 -4 -4 -4 -4 -5 -5 -5 -5 -5 -5 -5 -6 -6 -6 -6 -6 -6 -6 -6 -6 -6 -6 -5 -5 -5
-2 -2 -2 -2 -2 -2 -3 -3 -3 -3 -4 -4 -4 -4 -4 -5 -5 -5 -5 -6 -6 -6 -6 -6 -6 -6 -7 -7 -6 -6 -6 -6 -6 -6 -6 -6 -5 -5
-2 -2 -2 -3 -3 -3 -3 -3 -4 -4 -4 -4 -4 -5 -5 -5 -5 -6 -6 -6 -6 -6 -6 -7 -7 -7 -7 -7 -7 -7 -7 -7 -6 -6 -6 -6 -6 -6
-3 -3 -3 -3 -4 -4 -4 -4 -4 -4 -5 -5 -5 -5 -6 -6 -6 -6 -7 -7 -7 -7 -7 -7 -7 -8 -8 -7 -7 -7 -7 -7 -7 -7 -7 -7 -6 -6
-3 -3 -4 -4 -4 -4 -4 -5 -5 -5 -5 -5 -6 -6 -6 -6 -7 -7 -7 -7 -7 -7 -7 -7 -8 -8 -8 -8 -8 -7 -7 -7 -7 -7 -7 -7 -7 -6
-4 -4 -4 -4 -4 -5 -5 -5 -5 -5 -6 -6 -6 -6 -7 -7 -7 -7 -7 -8 -8 -8 -8 -8 -8 -8 -8 -8 -8 -8 -7 -8 -8 -8 -8 -8 -7 -7
-4 -4 -4 -5 -5 -5 -5 -6 -6 -6 -6 -6 -7 -7 -7 -7 -8 -8 -8 -8 -8 -8 -8 -8 -8 -8 -8 -9 -8 -8 -8 -8 -8 -8 -8 -8 -8 -8
-5 -5 -5 -5 -5 -5 -6 -6 -6 -6 -7 -7 -7 -7 -7 -8 -8 -8 -8 -8 -8 -8 -8 -8 -8 -9 -9 -9 -9 -8 -8 -8 -8 -8 -8 -8 -8 -8
Wind_Speed
3 3 3 2 3 3 3 4 3 2 3 3 2 2 3 4 6 7 8 9 10 11 11 12 12 11 11 12 12 12 13 11 11 11 11 11 12 11
3 3 3 2 3 3 3 3 3 4 4 3 3 3 3 5 7 8 9 10 10 11 12 13 13 12 12 12 12 12 12 11 11 11 11 12 12 12
3 4 4 3 3 3 3 3 3 3 5 4 3 2 3 3 6 7 8 9 10 12 13 13 13 13 12 12 12 12 12 11 11 12 12 12 12 12
5 4 5 4 4 4 4 4 4 4 4 6 3 3 4 4 4 4 7 8 10 11 12 13 13 13 14 13 13 12 12 11 11 11 12 12 12 13
5 5 5 5 5 4 5 5 4 4 4 4 4 3 3 3 3 4 4 6 8 11 12 12 13 14 14 13 13 13 12 12 12 12 12 12 12 12
5 5 5 6 6 6 5 6 5 4 4 4 4 4 3 3 2 3 4 4 5 7 9 10 12 13 13 13 13 13 12 12 12 12 12 12 13 13
4 4 5 6 8 7 5 5 5 4 4 4 5 4 4 3 4 3 4 5 5 3 3 5 7 8 10 12 12 13 13 13 13 13 13 13 13 13
4 4 4 5 7 8 9 9 8 6 6 5 5 6 6 5 4 4 4 4 4 2 2 5 4 5 7 10 12 13 13 13 12 12 13 13 13 13
5 4 4 4 5 4 7 8 8 10 10 7 7 7 6 5 4 5 5 5 6 4 3 6 3 5 7 11 12 12 12 12 12 11 12 12 13 12
4 4 4 5 4 4 3 4 5 6 7 6 7 7 6 6 6 5 5 5 5 4 3 4 4 4 5 9 11 11 10 10 10 11 12 13 13 12
4 4 4 5 7 6 3 4 5 5 7 9 9 9 10 10 7 3 3 4 5 4 3 3 3 3 4 4 7 8 8 10 11 12 13 13 12 12
2 3 5 6 7 7 4 4 5 5 4 4 5 6 6 6 7 4 4 4 4 4 2 2 2 2 4 3 2 5 7 10 11 12 12 12 12 8
2 2 3 6 7 7 6 4 7 5 3 3 3 3 3 3 3 4 4 4 5 5 3 2 2 2 3 4 4 3 4 5 7 8 10 11 11 9
3 3 3 6 7 7 5 6 7 5 2 2 3 3 3 3 3 4 5 6 7 7 6 4 3 4 4 6 5 3 3 5 5 5 6 9 11 12
3 4 5 6 5 4 5 6 4 2 2 3 3 4 3 3 3 2 3 4 5 8 9 8 5 5 5 6 6 5 5 4 4 4 4 5 5 5
2 3 5 5 3 4 4 3 2 2 2 3 3 3 2 2 2 2 3 3 3 4 5 8 7 6 6 7 7 8 5 4 3 4 4 5 5 6
2 1 1 1 1 2 2 2 2 2 3 2 3 3 3 3 3 2 2 2 3 5 5 3 5 7 7 7 7 8 6 6 5 5 4 6 6 6
3 2 2 2 3 3 3 3 3 3 3 3 3 4 4 4 4 3 3 3 5 5 5 4 3 3 3 5 8 8 6 6 5 5 4 6 7 5
3 3 3 3 4 4 3 3 3 3 3 3 4 4 4 4 3 4 4 4 5 5 5 4 3 3 5 6 4 6 5 5 5 5 5 5 6 6
3 3 4 4 4 4 4 4 4 3 3 4 4 4 4 4 4 4 4 5 6 6 5 4 4 4 5 6 5 4 7 6 5 6 5 5 6 8
4 4 4 4 4 4 4 4 4 4 4 4 4 4 4 4 5 5 5 7 7 5 6 5 5 6 4 3 4 4 4 7 8 5 4 4 4 3
4 4 4 4 4 4 4 4 4 4 5 5 5 5 5 5 6 6 6 6 6 6 6 5 4 3 2 4 6 6 5 5 7 9 9 7 4 3
4 4 4 4 4 4 4 5 5 5 5 5 5 5 5 5 5 5 6 6 5 6 5 4 3 3 4 5 6 6 6 5 4 4 5 8 11 13
Wind_Direction
203 204 207 215 199 197 189 185 188 244 275 266 270 280 286 295 301 301 298 300 303 302 303 304 304 306 307 308 308 304 303 305 305 305 305 307 308 309
203 203 214 217 208 201 199 203 200 206 248 258 255 269 286 295 299 299 295 297 298 298 299 298 297 297 298 301 303 304 304 302 301 301 301 302 303 304
216 212 227 220 213 209 201 202 207 202 241 271 254 267 270 274 295 296 295 291 291 295 296 296 294 292 292 295 297 298 298 296 295 295 296 298 299 299
222 217 230 225 223 218 208 211 215 210 222 261 276 269 263 262 273 283 290 287 286 290 293 292 293 292 291 290 291 291 291 289 290 290 291 293 294 294
222 220 227 219 232 227 218 219 223 224 219 241 268 268 273 268 285 283 281 283 289 289 290 288 290 292 290 288 289 291 289 286 286 287 288 288 289 290
230 227 227 223 229 230 227 224 222 223 224 234 258 266 266 263 259 277 293 285 290 292 286 288 293 292 289 289 290 289 287 284 282 283 284 284 284 286
242 239 236 237 237 236 234 224 214 219 225 236 251 259 259 262 262 256 278 295 286 268 283 288 291 286 285 286 288 287 284 282 281 280 280 279 280 281
244 250 251 252 253 254 253 245 227 220 224 231 245 249 255 249 253 260 274 296 295 273 286 290 275 275 276 277 281 284 282 283 283 282 281 280 280 279
236 245 258 258 264 249 261 264 255 247 239 230 237 243 248 240 240 255 253 259 266 268 282 284 275 277 280 282 285 282 283 285 285 285 286 284 281 279
237 235 243 257 256 248 243 259 261 257 254 242 235 243 245 241 233 240 251 262 269 260 228 267 280 276 288 287 283 280 282 285 288 289 287 284 282 278
248 240 241 246 259 262 244 253 268 270 271 260 256 260 265 265 258 245 248 267 287 280 217 233 275 291 289 280 284 286 288 291 291 292 290 286 282 279
265 259 262 262 265 263 235 231 257 265 259 269 271 278 278 277 273 244 232 252 275 278 218 221 268 307 304 281 277 291 293 291 291 292 292 288 283 279
250 256 257 278 281 276 267 242 253 263 247 247 258 264 266 263 261 251 234 231 251 259 235 216 251 247 258 288 288 269 263 275 287 288 291 290 287 279
240 243 252 279 287 286 280 270 273 276 238 246 257 261 263 263 257 254 251 246 245 253 256 239 242 251 269 281 284 282 273 267 268 275 278 289 290 285
246 264 278 286 291 285 278 278 280 258 238 251 259 262 256 258 262 269 270 269 268 265 260 250 244 254 257 268 275 277 290 280 258 260 272 278 278 279
262 275 290 298 299 288 284 283 261 237 241 247 260 263 261 261 261 260 273 288 292 287 267 257 249 245 258 262 267 275 271 270 280 277 279 278 272 259
263 264 262 286 287 282 279 270 258 253 256 247 253 264 266 267 268 257 252 264 273 286 292 281 267 258 250 254 265 266 267 269 267 273 279 283 275 262
264 251 256 255 259 263 268 269 260 252 251 253 253 253 262 266 271 268 259 260 274 279 279 280 291 299 287 261 237 253 260 263 267 266 263 274 281 271
249 246 250 252 257 258 258 257 258 256 254 255 256 256 256 259 265 270 269 270 273 274 272 264 258 261 283 290 273 228 243 267 273 274 263 257 271 280
238 247 251 253 254 253 254 256 259 260 255 252 252 251 250 254 261 264 263 264 272 276 276 263 243 239 248 268 278 270 253 256 262 269 272 270 270 279
247 249 250 251 251 250 250 250 251 253 252 249 251 250 247 249 258 258 259 268 270 270 273 270 256 260 257 261 275 275 270 262 257 259 264 276 282 283
252 253 255 252 250 249 249 248 250 252 254 252 250 251 248 246 253 257 258 261 263 262 266 270 269 261 233 248 267 278 284 292 285 273 260 245 241 251
253 254 254 253 250 248 247 247 249 255 255 254 253 251 250 253 254 256 256 256 260 265 269 272 268 249 246 250 264 273 279 287 291 293 280 269 262 265
Height
1508 1509 1509 1509 1510 1509 1510 1510 1510 1507 1506 1506 1507 1507 1507 1507 1506 1505 1504 1502 1501 1500 1498 1497 1495 1494 1492 1491 1489 1487 1486 1485 1483 1482 1481 1480 1479 1478
1504 1505 1505 1506 1506 1506 1506 1506 1506 1505 1503 1502 1503 1503 1503 1502 1501 1500 1499 1498 1496 1495 1493 1492 1490 1489 1487 1486 1484 1482 1481 1480 1478 1477 1476 1475 1475 1474
1500 1501 1501 1501 1501 1502 1501 1501 1501 1500 1498 1497 1498 1498 1498 1497 1496 1495 1494 1492 1491 1490 1488 1486 1485 1483 1482 1480 1479 1477 1476 1474 1473 1472 1471 1470 1469 1469
1496 1496 1496 1497 1497 1497 1496 1496 1496 1495 1494 1492 1492 1493 1492 1491 1490 1489 1489 1487 1486 1484 1482 1481 1479 1478 1476 1475 1473 1472 1470 1469 1468 1467 1466 1465 1464 1463
1491 1491 1492 1492 1492 1492 1492 1491 1491 1490 1489 1488 1487 1487 1486 1486 1484 1483 1483 1481 1480 1478 1477 1475 1473 1472 1470 1469 1467 1466 1465 1463 1462 1461 1460 1459 1458 1458
1486 1486 1487 1487 1487 1487 1486 1486 1485 1485 1484 1483 1482 1481 1480 1479 1478 1477 1475 1475 1474 1473 1471 1469 1468 1466 1465 1463 1462 1460 1459 1458 1456 1455 1454 1454 1453 1452
1481 1481 1481 1481 1481 1481 1481 1480 1480 1479 1478 1477 1476 1475 1474 1473 1472 1471 1469 1468 1467 1466 1464 1463 1462 1460 1459 1457 1455 1454 1453 1452 1450 1449 1448 1448 1447 1446
1476 1476 1476 1476 1476 1476 1476 1475 1475 1474 1472 1472 1470 1469 1468 1468 1467 1465 1464 1462 1460 1460 1458 1456 1456 1454 1453 1451 1449 1448 1446 1445 1444 1443 1442 1441 1441 1440
1472 1471 1471 1471 1471 1471 1470 1470 1469 1468 1468 1467 1465 1464 1463 1462 1461 1460 1459 1457 1455 1454 1452 1449 1449 1448 1447 1445 1443 1442 1440 1439 1438 1437 1436 1435 1435 1434
1467 1467 1466 1466 1465 1465 1464 1463 1463 1462 1462 1461 1460 1459 1458 1457 1456 1455 1453 1451 1450 1449 1447 1443 1442 1441 1440 1438 1437 1436 1435 1434 1433 1431 1430 1429 1429 1428
1462 1462 1461 1460 1460 1459 1458 1457 1457 1456 1456 1455 1454 1453 1452 1451 1451 1449 1448 1446 1443 1442 1441 1439 1436 1434 1433 1432 1431 1430 1429 1428 1427 1426 1424 1423 1423 1422
1457 1456 1456 1455 1454 1454 1453 1452 1451 1451 1450 1449 1448 1448 1447 1446 1445 1444 1443 1441 1438 1436 1435 1435 1432 1430 1427 1425 1426 1425 1424 1423 1422 1420 1419 1418 1417 1416
1452 1451 1451 1450 1450 1449 1448 1447 1446 1445 1444 1443 1442 1442 1441 1441 1440 1439 1437 1436 1434 1432 1432 1430 1427 1426 1425 1421 1419 1419 1418 1417 1416 1414 1413 1412 1411 1410
1447 1447 1446 1445 1445 1444 1443 1443 1442 1441 1439 1438 1437 1436 1436 1435 1434 1433 1432 1430 1429 1428 1427 1425 1423 1421 1419 1416 1414 1413 1412 1411 1410 1408 1407 1406 1406 1405
1443 1442 1442 1441 1440 1439 1439 1438 1437 1436 1435 1434 1432 1431 1431 1430 1429 1428 1426 1425 1424 1422 1421 1420 1418 1416 1415 1412 1410 1407 1406 1405 1404 1403 1402 1401 1400 1399
1439 1438 1438 1437 1436 1435 1434 1434 1433 1432 1430 1429 1428 1427 1426 1425 1424 1422 1421 1419 1418 1416 1416 1414 1412 1411 1409 1407 1406 1403 1402 1400 1399 1398 1396 1395 1394 1393
1435 1434 1433 1432 1431 1430 1430 1429 1428 1427 1426 1425 1423 1422 1421 1420 1419 1417 1416 1414 1412 1410 1409 1409 1408 1406 1404 1402 1400 1398 1397 1395 1394 1393 1391 1388 1388 1388
1430 1429 1428 1427 1426 1426 1425 1424 1423 1422 1421 1420 1419 1417 1416 1415 1413 1412 1411 1409 1407 1406 1404 1403 1402 1400 1399 1396 1396 1394 1392 1391 1389 1388 1386 1383 1382 1382
1425 1424 1423 1422 1422 1421 1420 1419 1418 1417 1416 1415 1414 1412 1411 1410 1408 1407 1406 1404 1403 1401 1400 1399 1398 1396 1394 1391 1390 1390 1388 1386 1384 1382 1381 1379 1377 1376
1420 1419 1418 1418 1417 1416 1415 1414 1413 1412 1411 1410 1408 1407 1406 1405 1403 1402 1401 1399 1398 1397 1395 1394 1393 1392 1390 1388 1385 1384 1384 1381 1379 1377 1375 1374 1372 1371
1415 1414 1414 1413 1412 1411 1410 1409 1408 1406 1405 1404 1403 1402 1401 1399 1398 1397 1396 1395 1394 1392 1390 1389 1389 1388 1386 1384 1381 1378 1378 1378 1375 1373 1371 1369 1367 1366
1410 1409 1409 1408 1407 1406 1404 1403 1402 1401 1400 1399 1397 1396 1395 1394 1393 1392 1391 1390 1388 1387 1386 1385 1384 1383 1381 1379 1377 1374 1373 1372 1371 1370 1368 1366 1365 1362
1405 1404 1403 1402 1401 1400 1399 1398 1396 1395 1394 1393 1392 1391 1390 1389 1388 1387 1386 1385 1384 1382 1381 1380 1379 1378 1376 1375 1373 1371 1369 1367 1366 1365 1364 1363 1362 1360